Погода в Намдине

Вьетнам     20°25′31″N   106°10′29″E
темп.,
°C
ветер,
м/с
пор.,
м/с
влажн.,
%
обл.,
%
осадки,
мм/ч
давл.,
гПа
погр.,
м
17 апреля, сб
сб1701:00+24вюв2495100 0.1 1012113
04:00+23вюв359498 0.3 1012150
07:00+24в3687100 0.4 1014306
10:00+25вюв5683100 0.1 1015461
13:00+26юв3476100 0.9 1013766
16:00+25в3385100 0.1 1011423
19:00+23в239188 0.1 1013133
22:00+23в2491100 0.0 1014179
18 апреля, вс
вс1801:00+22вюв2496100 0.1 101397
04:00+22в239610 0.0 101268
07:00+24вюв238744 0.0 1013264
10:00+24ююз1187100 0.1 101377
13:00+27ююв357060 0.3 1010988
16:00+28ююв56666 0.1 1008890
19:00+24вюв368886 0.1 1009212
22:00+24вюв2595100 0.4 1011197
19 апреля, пн
пн1901:00+23в2597100 2.8 1010209
04:00+23в379797 2.9 1009341
07:00+23всв479699 4.5 1011370
10:00+24в4587100 0.2 1012524
13:00+24в568797 0.6 1009489
16:00+23в479096 0.0 1008407
19:00+22в589098 0.0 1010462
22:00+22в5889100 0.0 1011545
20 апреля, вт
вт2001:00+22в599298 0.0 1009389
04:00+22в4792100 0.0 1009305
07:00+23в469199 0.0 1010309
10:00+27вюв447683 0.0 1011792
13:00+28вюв557381 0.3 1008919
16:00+27вюв567533 0.1 1007826
19:00+24вюв599417 0.1 1009346
22:00+24вюв379413 0.0 1010329
21 апреля, ср
ср2101:00+24вюв499498 0.6 1010385
04:00+23вюв389457 0.4 1009277
07:00+24вюв369299 0.6 1011277
10:00+28ююв567887 0.7 1011779
13:00+29ююв677158 2.3 10091074
16:00+28ююв687217 0.2 1007887
19:00+25юв49900 0.2 1009381
22:00+24вюв499347 0.0 1011387